Location: Daouli
(14.8671°N, 3.2030°W)
Time: 00:22:34
(UTC+00:00)

Cosmos 1486 Rocket - Pass Details

Date: 29 October 2020
Orbit: 758 x 784 km, 74.1° (Epoch: 02 December)

Event Time Altitude Azimuth Distance (km) Brightness Sun altitude
Rises 18:54:59 0° 352° (N) 3,257 7.2 -17.3°
Reaches altitude 10° 18:57:24 10° 355° (N) 2,326 6.4 -17.9°
Maximum altitude 19:02:38 63° 76° (ENE) 863 3.9 -19.2°
Drops below altitude 10° 19:07:49 10° 157° (SSE) 2,309 6.3 -20.4°
Sets 19:10:12 0° 160° (SSE) 3,230 7.1 -21.0°
